TimeEDT,TemperatureF,Dew PointF,Humidity,Sea Level PressureIn,VisibilityMPH,Wind Direction,Wind SpeedMPH,Gust SpeedMPH,PrecipitationIn,Events,Conditions,WindDirDegrees,DateUTC
12:54 AM,69.1,68.0,96,29.96,6.0,WNW,3.5,-,N/A,,Clear,300,2008-07-27 04:54:00
1:23 AM,68.0,66.2,94,30.03,5.0,Calm,Calm,-,N/A,,Scattered Clouds,0,2008-07-27 05:23:00
1:33 AM,69.8,68.0,94,30.03,6.0,Calm,Calm,-,N/A,,Mostly Cloudy,0,2008-07-27 05:33:00
1:54 AM,68.0,66.9,96,29.96,5.0,Calm,Calm,-,N/A,,Mostly Cloudy,0,2008-07-27 05:54:00
2:01 AM,68.0,66.2,94,30.03,6.0,SSE,3.5,-,N/A,,Scattered Clouds,150,2008-07-27 06:01:00
2:09 AM,68.0,66.2,94,30.02,5.0,Calm,Calm,-,N/A,,Mostly Cloudy,0,2008-07-27 06:09:00
2:31 AM,66.2,66.2,100,30.02,4.0,Calm,Calm,-,N/A,,Scattered Clouds,0,2008-07-27 06:31:00
2:54 AM,66.2,66.2,100,30.00,5.0,NNW,5.8,-,N/A,,Clear,330,2008-07-27 06:54:00
3:13 AM,66.2,64.4,94,30.01,1.8,West,3.5,-,N/A,,Clear,260,2008-07-27 07:13:00
3:21 AM,66.2,64.4,94,30.01,3.0,Calm,Calm,-,N/A,,Clear,0,2008-07-27 07:21:00
3:54 AM,66.0,64.9,96,29.92,6.0,Calm,Calm,-,N/A,,Clear,0,2008-07-27 07:54:00
4:54 AM,66.9,64.9,93,29.92,7.0,NNW,5.8,-,N/A,,Clear,340,2008-07-27 08:54:00
5:54 AM,64.9,64.0,97,29.92,7.0,Variable,3.5,-,N/A,,Clear,0,2008-07-27 09:54:00
6:54 AM,66.0,64.9,96,29.93,4.0,North,3.5,-,N/A,,Clear,350,2008-07-27 10:54:00
7:54 AM,66.9,64.9,93,29.94,6.0,NNW,9.2,-,N/A,,Clear,340,2008-07-27 11:54:00
8:54 AM,72.0,66.0,81,29.95,9.0,North,5.8,-,N/A,,Clear,360,2008-07-27 12:54:00
9:54 AM,75.9,66.9,74,29.94,9.0,North,9.2,-,N/A,,Clear,350,2008-07-27 13:54:00
10:54 AM,80.1,66.9,64,29.94,10.0,North,11.5,-,N/A,,Clear,350,2008-07-27 14:54:00
11:54 AM,82.4,66.2,58,30.03,10.0,NNW,12.7,18.4,N/A,,Clear,340,2008-07-27 15:54:00
12:54 PM,84.0,63.0,49,29.92,10.0,NNW,12.7,16.1,N/A,,Partly Cloudy,340,2008-07-27 16:54:00
1:54 PM,88.0,55.9,34,29.91,10.0,North,16.1,24.2,N/A,,Clear,350,2008-07-27 17:54:00
2:54 PM,89.1,57.0,34,29.90,10.0,NNW,9.2,16.1,N/A,,Clear,340,2008-07-27 18:54:00
3:54 PM,89.1,57.0,34,29.87,10.0,NE,6.9,-,N/A,,Clear,40,2008-07-27 19:54:00
4:54 PM,88.0,55.9,34,29.86,10.0,NW,15.0,23.0,N/A,,Clear,320,2008-07-27 20:54:00
5:54 PM,88.0,55.9,34,29.86,10.0,North,8.1,-,N/A,,Clear,360,2008-07-27 21:54:00
6:54 PM,87.1,57.0,36,29.86,10.0,North,9.2,-,N/A,,Clear,10,2008-07-27 22:54:00
7:54 PM,84.0,57.0,40,29.87,10.0,NNW,9.2,-,N/A,,Clear,340,2008-07-27 23:54:00
8:54 PM,79.0,59.0,50,29.88,10.0,NW,6.9,-,N/A,,Clear,320,2008-07-28 00:54:00
9:54 PM,73.0,61.0,66,29.91,10.0,West,3.5,-,N/A,,Clear,270,2008-07-28 01:54:00
10:54 PM,72.0,62.1,71,29.91,10.0,Calm,Calm,-,N/A,,Clear,0,2008-07-28 02:54:00
11:54 PM,68.0,62.1,81,29.92,10.0,Calm,Calm,-,N/A,,Clear,0,2008-07-28 03:54:00